This is the latest recevied weather packets stored in our database for station/object KC5CAM-13. If no packets are shown the sender has not sent any weather packets the latest 10 day(s).
| Time | Temp. | Humidity | Pressure | Rain* | Wind** | Luminosity | Snow |
|---|---|---|---|---|---|---|---|
| 1777056943 | 30° C | 63% | 1005.9 hPa | 0 mm | - | 855 W/m² | - |
| 1777056642 | 29.44° C | 64% | 1005.6 hPa | 0 mm | - | 396 W/m² | - |
| 1777056338 | 29.44° C | 66% | 1006 hPa | 0 mm | - | 242 W/m² | - |
| 1777056034 | 30° C | 62% | 1006 hPa | 0 mm | - | 811 W/m² | - |
| 1777055731 | 28.89° C | 63% | 1006 hPa | 0 mm | - | 787 W/m² | - |
| 1777055422 | 29.44° C | 64% | 1006 hPa | 0 mm | - | 186 W/m² | - |
| 1777055121 | 28.89° C | 65% | 1006.2 hPa | 0 mm | - | 749 W/m² | - |
| 1777054816 | 29.44° C | 70% | 1005.9 hPa | 0 mm | - | 687 W/m² | - |
| 1777054513 | 30° C | 65% | 1005.9 hPa | 0 mm | - | 644 W/m² | - |
| 1777054210 | 29.44° C | 69% | 1006.3 hPa | 0 mm | - | 808 W/m² | - |
| 1777053908 | 29.44° C | 64% | 1006.2 hPa | 0 mm | - | 291 W/m² | - |
| 1777053603 | 29.44° C | 66% | 1006.3 hPa | 0 mm | - | 759 W/m² | - |
| 1777053297 | 28.33° C | 67% | 1006.3 hPa | 0 mm | - | 272 W/m² | - |
| 1777052993 | 28.89° C | 69% | 1006.3 hPa | 0 mm | - | 672 W/m² | - |
| 1777052690 | 28.89° C | 66% | 1006.2 hPa | 0 mm | - | 816 W/m² | - |
| 1777052389 | 28.89° C | 68% | 1006.3 hPa | 0 mm | - | 804 W/m² | - |
| 1777052086 | 28.89° C | 68% | 1006.3 hPa | 0 mm | - | 175 W/m² | - |
| 1777051783 | 28.89° C | 68% | 1006.3 hPa | 0 mm | - | 774 W/m² | - |
| 1777051479 | 28.33° C | 69% | 1006.5 hPa | 0 mm | - | 800 W/m² | - |
| 1777051175 | 28.89° C | 66% | 1006.2 hPa | 0 mm | - | 494 W/m² | - |
| 1777050871 | 28.89° C | 68% | 1006.5 hPa | 0 mm | - | 804 W/m² | - |
| 1777050567 | 28.33° C | 69% | 1006.6 hPa | 0 mm | - | 856 W/m² | - |
| 1777050266 | 28.33° C | 71% | 1006.5 hPa | 0 mm | - | 413 W/m² | - |
| 1777049962 | 28.33° C | 72% | 1006.5 hPa | 0 mm | - | 835 W/m² | - |
| 1777049656 | 27.78° C | 72% | 1006.8 hPa | 0 mm | - | 197 W/m² | - |
* Rain latest hour (hover to see other rain measurements)
** Current wind speed in m/s (hover to see current wind gust speed)